Location: Unspecified
(64.9000°N, 0.0000°E)
Time: 03:00:16
(UTC+00:00)

Altair - Pass Details

Date: 25 June 2019
Orbit: 1501 x 1683 km, 47.2° (Epoch: 15 July)

Event Time Altitude Azimuth Distance (km) Brightness Sun altitude
Rises 23:22:15 0° 261° (W) 4,783 10.1 -1.4°
Reaches altitude 10° 23:26:03 10° 248° (WSW) 3,827 9.5 -1.4°
Maximum altitude 23:33:13 24° 200° (SSW) 2,927 8.5 -1.5°
Drops below altitude 10° 23:40:31 10° 153° (SSE) 3,916 9.1 -1.6°
Sets 23:44:30 0° 140° (SE) 4,918 9.6 -1.7°
